This demonstration page uses our WeatherBlox Daily Observations layout. Learn more.

Left ArrowRight Arrow

39.51506, -84.39828

Hourly Observations for June 19, 2016

Temp ( °F °C ) Dew Point ( °F °C ) Humidity (%) Winds ( mph kmh ) Pressure ( in mb ) Visibility ( mi km ) Precip ( " mm )
12:15 am 00:15 Clear 67 19.5 57 13.8 70 70 N N/A 30.24 1024 10 16 N/A
12:35 am 00:35 Clear 66 18.8 56 13.3 71 71 N N/A 30.24 1024 10 16 N/A
12:55 am 00:55 Clear 64 18 55 12.7 71 71 N N/A 30.24 1024 10 16 N/A
1:10 am 01:10 Clear 64 18 56 13.1 73 73 N N/A 30.24 1024 10 16 N/A
1:35 am 01:35 Clear 64 17.8 56 13.2 75 75 N 3 6 30.24 1024 10 16 N/A
1:55 am 01:55 Clear 62 16.6 55 12.5 77 77 N N/A 30.27 1025 10 16 N/A
2:15 am 02:15 Clear 62 16.7 54 12.3 75 75 N N/A 30.27 1025 10 16 N/A
2:35 am 02:35 Clear 62 16.6 55 12.5 77 77 N N/A 30.27 1025 10 16 N/A
2:55 am 02:55 Clear 62 16.5 55 12.5 77 77 N 3 6 30.27 1025 10 16 N/A
3:15 am 03:15 Clear 60 15.6 53 11.9 79 79 N N/A 30.27 1025 10 16 N/A
3:35 am 03:35 Clear 61 16 54 12.3 79 79 N N/A 30.27 1025 10 16 N/A
3:55 am 03:55 Clear 60 15.3 53 11.7 79 79 N N/A 30.27 1025 10 16 N/A
4:15 am 04:15 Clear 60 15.3 53 11.8 80 80 N N/A 30.27 1025 10 16 N/A
4:35 am 04:35 Clear 60 15.3 53 11.8 80 80 N N/A 30.27 1025 10 16 N/A
4:55 am 04:55 Clear 60 15.3 53 11.8 80 80 N N/A 30.27 1025 10 16 N/A
5:15 am 05:15 Clear 60 15.3 53 11.7 79 79 N N/A 30.27 1025 10 16 N/A
5:35 am 05:35 Clear 60 15.3 53 11.9 80 80 N N/A 30.30 1026 10 16 N/A
5:55 am 05:55 Clear 60 15.3 54 12 81 81 N N/A 30.30 1026 10 16 N/A
6:15 am 06:15 Sunny 60 15.3 54 12 81 81 N N/A 30.30 1026 10 16 N/A
6:35 am 06:35 Sunny 60 15.3 54 12 81 81 N N/A 30.30 1026 10 16 N/A
6:55 am 06:55 Sunny 60 15.3 54 12 81 81 N N/A 30.30 1026 10 16 N/A
7:15 am 07:15 Sunny 60 15.5 54 12.1 80 80 N N/A 30.30 1026 10 16 N/A
7:35 am 07:35 Sunny 62 16.6 56 13.1 80 80 N N/A 30.33 1027 10 16 N/A
7:55 am 07:55 Sunny 67 19.5 60 15.4 77 77 N N/A 30.30 1026 10 16 N/A
8:15 am 08:15 Sunny 69 20.8 61 15.9 74 74 N N/A 30.30 1026 10 16 N/A
8:35 am 08:35 Sunny 69 20.8 59 14.9 69 69 N N/A 30.30 1026 10 16 N/A
8:55 am 08:55 Sunny 74 23.6 56 13.5 53 53 S 5 7 30.30 1026 10 16 N/A
9:15 am 09:15 Sunny 74 23.6 55 12.8 51 51 SSE 5 7 30.30 1026 10 16 N/A
9:35 am 09:35 Sunny 77 24.9 56 13.1 48 48 SE 3 6 30.30 1026 10 16 N/A
9:55 am 09:55 Partly Cloudy 77 25.1 55 12.9 47 47 S 6 9 30.30 1026 10 16 N/A
10:15 am 10:15 Partly Cloudy 79 26.1 56 13.3 45 45 SE 7 11 30.30 1026 10 16 N/A
10:35 am 10:35 Partly Cloudy 80 26.5 56 13.3 44 44 S 8 13 30.30 1026 10 16 N/A
10:55 am 10:55 Partly Cloudy 80 26.8 57 13.9 45 45 S 5 7 30.30 1026 10 16 N/A
11:15 am 11:15 Sunny 81 27.2 57 14 44 44 S 6 9 30.30 1026 10 16 N/A
11:35 am 11:35 Sunny 82 27.8 58 14.7 45 45 S 3 6 30.27 1025 10 16 N/A
11:55 am 11:55 Sunny 82 28 60 15.4 46 46 S 6 9 30.27 1025 10 16 N/A
12:15 pm 12:15 Partly Cloudy 83 28.3 60 15.3 45 45 S 6 9 30.27 1025 10 16 N/A
12:35 pm 12:35 Sunny 83 28.5 59 15 44 44 SW 6 9 30.27 1025 10 16 N/A
12:55 pm 12:55 Sunny 83 28.6 59 14.9 43 43 S 5 7 30.27 1025 10 16 N/A
1:15 pm 13:15 Sunny 86 29.9 59 14.9 40 40 S 3 6 30.27 1025 10 16 N/A
1:35 pm 13:35 Sunny 87 30.7 60 15.3 39 39 S 5 7 30.27 1025 10 16 N/A
1:55 pm 13:55 Sunny 90 32.1 62 16.4 39 39 SSE 8 13 30.21 1023 10 16 N/A
2:15 pm 14:15 Sunny 90 32.1 62 16.4 39 39 S 3 6 30.21 1023 10 16 N/A
2:35 pm 14:35 Partly Cloudy 90 32.1 62 16.7 40 40 S 7 11 30.21 1023 10 16 N/A
2:55 pm 14:55 Partly Cloudy 90 32.1 61 16.1 38 38 S 6 9 30.21 1023 10 16 N/A
3:15 pm 15:15 Partly Cloudy 90 32.1 60 15.8 37 37 SSW 6 9 30.21 1023 10 16 N/A
3:35 pm 15:35 Partly Cloudy 90 32.1 59 15.2 36 36 SSE 6 9 30.21 1023 10 16 N/A
3:55 pm 15:55 Partly Cloudy 90 32.1 60 15.3 36 36 SSE 6 9 30.18 1022 10 16 N/A
4:15 pm 16:15 Sunny 90 32.1 59 14.9 35 35 SSW 3 6 30.18 1022 10 16 N/A
4:35 pm 16:35 Sunny 90 32.1 57 13.9 33 33 WSW 6 9 30.18 1022 10 16 N/A
4:55 pm 16:55 Partly Cloudy 90 32.1 59 14.8 35 35 SSW 6 9 30.18 1022 10 16 N/A
5:15 pm 17:15 Partly Cloudy 90 32.1 58 14.6 35 35 S 5 7 30.18 1022 10 16 N/A
5:35 pm 17:35 Sunny 90 32.1 60 15.5 37 37 SW 7 11 30.18 1022 10 16 N/A
5:55 pm 17:55 Partly Cloudy 90 32.1 61 16.3 39 39 S 5 7 30.18 1022 10 16 N/A
6:15 pm 18:15 Partly Cloudy 90 32.1 62 16.6 39 39 S 10 17 30.15 1021 10 16 N/A
6:35 pm 18:35 Sunny 89 31.6 63 17.1 42 42 S 7 11 30.15 1021 10 16 N/A
6:55 pm 18:55 Partly Cloudy 90 32.1 63 17.2 41 41 SE 6 9 30.15 1021 10 16 N/A
7:15 pm 19:15 Mostly Cloudy 90 32.1 63 17.1 41 41 SSE 3 6 30.15 1021 10 16 N/A
7:35 pm 19:35 Partly Cloudy 90 32.1 65 18.1 43 43 SSW 9 15 30.15 1021 10 16 N/A
7:55 pm 19:55 Sunny 87 30.7 64 18 47 47 SSW 9 15 30.18 1022 10 16 N/A
8:15 pm 20:15 Sunny 83 28.1 64 17.5 53 53 SSW 7 11 30.21 1023 10 16 N/A
8:35 pm 20:35 Partly Cloudy 82 28 63 17.2 52 52 SSW 7 11 30.21 1023 10 16 N/A
8:55 pm 20:55 Mostly Cloudy 82 28 64 17.8 54 54 SSW 7 11 30.21 1023 10 16 N/A
9:15 pm 21:15 Partly Cloudy 81 27.2 64 17.6 56 56 SSW 6 9 30.21 1023 10 16 N/A
9:35 pm 21:35 Mostly Cloudy 80 26.6 64 17.9 59 59 SSW 6 9 30.21 1023 10 16 N/A
9:55 pm 21:55 Partly Cloudy 80 26.5 65 18.6 62 62 SSW 6 9 30.21 1023 10 16 N/A
10:15 pm 22:15 Clear 79 26 65 18.5 63 63 SW 6 9 30.21 1023 10 16 N/A
10:35 pm 22:35 Clear 77 25.1 66 18.9 69 69 SSW 5 7 30.21 1023 10 16 N/A
10:55 pm 22:55 Clear 74 23.6 66 18.8 75 75 SW 3 6 30.21 1023 10 16 N/A
11:15 pm 23:15 Clear 74 23.6 67 19.3 77 77 N N/A 30.21 1023 10 16 N/A
11:35 pm 23:35 Clear 74 23.6 67 19.5 78 78 SSW 5 7 30.21 1023 10 16 N/A
11:55 pm 23:55 Clear 74 23.6 67 19.2 76 76 SSW 5 7 30.21 1023 10 16 N/A

Powered by AerisWeather